Regional Weather Roundup
Issued by NWS

Home | Current Version | Previous Version | Graphics & Text | Print | Product List | Glossary On
Versions: 1 2 3 4 5 6 7 8 9 10 11 12 13 14 15 16 17 18 19 20 21 22 23 24 25 26 27 28
000
ASUS45 KCYS 050510
RWRWY

WYOMING REGIONAL WEATHER ROUNDUP
NATIONAL WEATHER SERVICE CHEYENNE WY
1000 PM MST SUN DEC 04 2016

NOTE:  "FAIR" INDICATES FEW OR NO CLOUDS BELOW 12,000 FEET
WITH NO SIGNIFICANT WEATHER AND/OR OBSTRUCTIONS TO VISIBILITY.

WYZ001-050600-
YELLOWSTONE NATIONAL PARK

CITY           SKY/WX    TMP DP  RH WIND       PRES   REMARKS
LK YELLOWSTONE   N/A     24  20  84 W7G21     29.56S WCI  16
W YELLOWSTONE  NOT AVBL

$$
WYZ002>013-054>058-071-098>099-050600-
NORTHERN WYOMING

CITY           SKY/WX    TMP DP  RH WIND       PRES   REMARKS
JACKSON        CLOUDY    28  28 100 S21G31    29.60F WCI  15
CODY           SNOW      30  29  96 CALM      29.52S VSB 1/2
GREYBULL       CLOUDY    32  20  61 CALM      29.50F
WORLAND        FAIR      24  20  84 CALM      29.50F
SHERIDAN       CLOUDY    32  23  69 W3        29.49F
BUFFALO        FAIR      36  17  46 NW3       29.49F
GILLETTE       FAIR      38  22  52 SW15      29.50F WCI  29
HULETT         FAIR      37  23  56 S9        29.52F WCI  31
NEWCASTLE      FAIR      36  23  60 SE9       29.57F WCI  29

$$
WYZ014>020-022>026-101>103-050600-
CENTRAL WYOMING

CITY           SKY/WX    TMP DP  RH WIND       PRES   REMARKS
BIG PINEY      LGT SNOW  27  26  96 W9        29.71F FOG     WCI  18
PINEDALE       FLURRIES  28  27  93 MISG      29.69F
DUBOIS         CLOUDY    32  19  59 W33G43    29.51R WCI  17
LANDER         FAIR      34  27  75 SW25G41   29.56S WCI  21
RIVERTON       FAIR      36  22  56 SW16      29.58F WCI  26
CASPER         FAIR      37  20  50 SW21      29.60S WCI  26
DOUGLAS        FAIR      42  20  41 W28G38    29.58F

$$
WYZ021-027>030-104>119-050600-
SOUTHERN WYOMING

CITY           SKY/WX    TMP DP  RH WIND       PRES   REMARKS
EVANSTON       CLOUDY    33  24  69 SW21      29.78F WCI  21
KEMMERER         N/A     30  27  86 SW21      29.75F WCI  17
FORT BRIDGER   CLOUDY    34  28  76 W21G30    29.80F WCI  23
ROCK SPRINGS   FAIR      34  22  61 W23G33    29.74F WCI  22
DIXON          CLOUDY    35  16  46 SW12G25   29.84F WCI  27
RAWLINS        FAIR      35  17  47 SW33G43   29.70F WCI  21
SARATOGA       FAIR      32  19  59 SW23G30   29.74F WCI  19
LARAMIE        FAIR      35  16  45 SW25G32   29.72F WCI  23
CHEYENNE       FAIR      41  17  38 S14       29.68F
TORRINGTON     FAIR      45  18  34 E9        29.61F
PINE BLUFFS    FAIR      34  18  51 SW12      29.71F WCI  25

$$




USA.gov is the U.S. government's official web portal to all federal, state and local government web resources and services.